sat.trackr.live / text

‹ back to catalog

STARLINK-34607

NORAD 64742 · 2025-144U

PAYLOAD ACTIVE UNKNOWN

§ Identity

Operator
Country
US
Launch date
2025-07-02
Launch site
AFETR
Launch vehicle
Mass (kg)
RCS (m²)

Purposes: comms

External: N2YO · Heavens-Above · Gunter

§ Orbital elements

Epoch: 2026-09-20T22:06:19.202112Z

Period
93.85 min
Inclination
53.1607°
Eccentricity
0.0001150
Mean motion
15.34365201 rev/d
Perigee alt
462.0 km
Apogee alt
463.6 km
Semi-major
6,840.9 km
B*
3.9931e-4
RAAN
353.4343°
Arg perigee
56.0446°
Mean anomaly
304.0666°
Rev number
6,959

§ Raw data

STARLINK-346071 64742U 25144U   26263.92105558  .00013124  00000+0  39931-3 0  99912 64742  53.1607 353.4343 0001150  56.0446 304.0666 15.34365201 69598

JSON: /api/v1/satellites/64742 · /tle

For live sub-satellite position, see the globe view (requires WebGL).

§ Visibility from observer

Set your observer location to see the next 7 days of passes ≥ 10°. The values pass through the URL so the page stays shareable.

No JS? Fill the form by hand. The geolocation button needs JavaScript.